International Skating Union - Official Site

ISU World Cup Seoul
November 21-23, 2014

Draw | Lap Times | Index | World Cup

Referee: Erik  ØSMUNDSET  (NOR)
Starter: Sung-Yeol  JAEGAL  (KOR)
StartTime: EndTime: Air Temp: Ice Temp: Humidity:
10:48 11:34 14.4℃ -5.7℃ 38%
Result 5000m Ladies Division B
Rankings as of Nov 23 2014 3:56PM
Rank: No.: Name: Nation: Time: Behind: Points:
1 89 Olga  Graf RUS RUS 7:15.11200m - 21.50 - (21.5)
600m - 54.80 - (33.2)
1000m - 1:28.88 - (34.0)
1400m - 2:03.46 - (34.5)
1800m - 2:37.75 - (34.2)
2200m - 3:12.11 - (34.3)
2600m - 3:46.33 - (34.2)
3000m - 4:20.62 - (34.2)
3400m - 4:55.23 - (34.6)
3800m - 5:30.19 - (34.9)
4200m - 6:04.99 - (34.8)
4600m - 6:39.82 - (34.8)
5000m - 7:15.11 - (35.2)
32
2 66 Rixt  Meijer NED NED 7:16.68200m - 20.70 - (20.6)
600m - 53.41 - (32.7)
1000m - 1:27.79 - (34.3)
1400m - 2:02.35 - (34.5)
1800m - 2:36.63 - (34.2)
2200m - 3:10.93 - (34.3)
2600m - 3:45.31 - (34.3)
3000m - 4:19.75 - (34.4)
3400m - 4:54.89 - (35.1)
3800m - 5:30.03 - (35.1)
4200m - 6:05.62 - (35.5)
4600m - 6:41.34 - (35.7)
5000m - 7:16.68 - (35.3)
1.57 27
3 2 Jelena  Peeters BEL BEL 7:22.01200m - 21.36 - (21.3)
600m - 56.49 - (35.1)
1000m - 1:31.76 - (35.2)
1400m - 2:07.35 - (35.5)
1800m - 2:42.06 - (34.7)
2200m - 3:17.15 - (35.0)
2600m - 3:52.11 - (34.9)
3000m - 4:26.86 - (34.7)
3400m - 5:01.61 - (34.7)
3800m - 5:36.78 - (35.1)
4200m - 6:11.90 - (35.1)
4600m - 6:46.69 - (34.7)
5000m - 7:22.01 - (35.3)
6.90 23
4 25 Stephanie  Beckert GER GER 7:24.96200m - 22.27 - (22.2)
600m - 56.76 - (34.4)
1000m - 1:31.63 - (34.8)
1400m - 2:06.62 - (34.9)
1800m - 2:41.46 - (34.8)
2200m - 3:16.65 - (35.1)
2600m - 3:51.99 - (35.3)
3000m - 4:27.34 - (35.3)
3400m - 5:02.80 - (35.4)
3800m - 5:38.49 - (35.6)
4200m - 6:14.12 - (35.6)
4600m - 6:49.81 - (35.6)
5000m - 7:24.96 - (35.1)
9.85 19
5 96 Maria  Lamb USA USA 7:28.44200m - 21.62 - (21.6)
600m - 55.67 - (34.0)
1000m - 1:30.97 - (35.2)
1400m - 2:06.62 - (35.6)
1800m - 2:42.16 - (35.5)
2200m - 3:17.89 - (35.7)
2600m - 3:53.63 - (35.7)
3000m - 4:29.26 - (35.6)
3400m - 5:05.06 - (35.8)
3800m - 5:40.87 - (35.8)
4200m - 6:16.64 - (35.7)
4600m - 6:52.36 - (35.7)
5000m - 7:28.44 - (36.0)
13.33 15
6 44 Risa  Takayama JPN JPN 7:29.28200m - 22.10 - (22.1)
600m - 56.83 - (34.7)
1000m - 1:32.04 - (35.2)
1400m - 2:06.98 - (34.9)
1800m - 2:42.11 - (35.1)
2200m - 3:17.52 - (35.4)
2600m - 3:53.50 - (35.9)
3000m - 4:28.91 - (35.4)
3400m - 5:04.36 - (35.4)
3800m - 5:40.27 - (35.9)
4200m - 6:16.72 - (36.4)
4600m - 6:53.29 - (36.5)
5000m - 7:29.28 - (35.9)
14.17 11
7 72 Lisa  van der Geest NED NED 7:30.55200m - 21.64 - (21.6)
600m - 55.05 - (33.4)
1000m - 1:29.36 - (34.3)
1400m - 2:04.13 - (34.7)
1800m - 2:39.38 - (35.2)
2200m - 3:14.56 - (35.1)
2600m - 3:49.95 - (35.3)
3000m - 4:25.72 - (35.7)
3400m - 5:01.83 - (36.1)
3800m - 5:38.52 - (36.6)
4200m - 6:15.59 - (37.0)
4600m - 6:52.64 - (37.0)
5000m - 7:30.55 - (37.9)
15.44 9
8 36 Ayaka  Kikuchi JPN JPN 7:31.36200m - 21.24 - (21.2)
600m - 54.84 - (33.6)
1000m - 1:28.91 - (34.0)
1400m - 2:03.67 - (34.7)
1800m - 2:38.69 - (35.0)
2200m - 3:13.67 - (34.9)
2600m - 3:48.76 - (35.0)
3000m - 4:24.27 - (35.5)
3400m - 5:00.30 - (36.0)
3800m - 5:37.01 - (36.7)
4200m - 6:14.56 - (37.5)
4600m - 6:53.10 - (38.5)
5000m - 7:31.36 - (38.2)
16.25 7
9 95 Natalya  Voronina RUS RUS 7:33.36200m - 21.06 - (21.0)
600m - 55.09 - (34.0)
1000m - 1:29.42 - (34.3)
1400m - 2:04.51 - (35.0)
1800m - 2:39.64 - (35.1)
2200m - 3:15.38 - (35.7)
2600m - 3:51.17 - (35.7)
3000m - 4:27.22 - (36.0)
3400m - 5:03.87 - (36.6)
3800m - 5:41.17 - (37.3)
4200m - 6:18.78 - (37.6)
4600m - 6:56.28 - (37.5)
5000m - 7:33.36 - (37.0)
18.25 6
10 82 Katarzyna  Wozniak POL POL 7:33.37200m - 21.55 - (21.5)
600m - 56.67 - (35.1)
1000m - 1:32.12 - (35.4)
1400m - 2:07.11 - (34.9)
1800m - 2:42.13 - (35.0)
2200m - 3:17.22 - (35.0)
2600m - 3:52.75 - (35.5)
3000m - 4:28.73 - (35.9)
3400m - 5:04.91 - (36.1)
3800m - 5:41.43 - (36.5)
4200m - 6:18.30 - (36.8)
4600m - 6:55.90 - (37.5)
5000m - 7:33.37 - (37.4)
18.26 5
11 49 Ye Jin  Jun KOR KOR 7:33.74200m - 21.68 - (21.6)
600m - 55.31 - (33.6)
1000m - 1:30.51 - (35.2)
1400m - 2:06.11 - (35.5)
1800m - 2:41.86 - (35.7)
2200m - 3:17.00 - (35.1)
2600m - 3:53.19 - (36.1)
3000m - 4:29.18 - (35.9)
3400m - 5:06.06 - (36.8)
3800m - 5:42.71 - (36.6)
4200m - 6:20.01 - (37.3)
4600m - 6:56.92 - (36.9)
5000m - 7:33.74 - (36.8)
18.63 4
12 81 Aleksandra  Goss POL POL 7:34.18200m - 21.91 - (21.9)
600m - 56.90 - (34.9)
1000m - 1:32.06 - (35.1)
1400m - 2:07.69 - (35.6)
1800m - 2:43.03 - (35.3)
2200m - 3:18.97 - (35.9)
2600m - 3:54.78 - (35.8)
3000m - 4:31.12 - (36.3)
3400m - 5:07.24 - (36.1)
3800m - 5:43.90 - (36.6)
4200m - 6:20.61 - (36.7)
4600m - 6:57.55 - (36.9)
5000m - 7:34.18 - (36.6)
19.07 3
13 41 Maki  Tabata JPN JPN 7:35.75200m - 21.43 - (21.4)
600m - 55.04 - (33.6)
1000m - 1:29.39 - (34.3)
1400m - 2:04.41 - (35.0)
1800m - 2:39.95 - (35.5)
2200m - 3:16.00 - (36.0)
2600m - 3:52.32 - (36.3)
3000m - 4:28.80 - (36.4)
3400m - 5:05.41 - (36.6)
3800m - 5:42.40 - (36.9)
4200m - 6:19.87 - (37.4)
4600m - 6:57.54 - (37.6)
5000m - 7:35.75 - (38.1)
20.64 2
14 11 Josie  Spence CAN CAN 7:36.50200m - 21.47 - (21.4)
600m - 56.22 - (34.7)
1000m - 1:32.01 - (35.7)
1400m - 2:07.68 - (35.6)
1800m - 2:43.58 - (35.9)
2200m - 3:19.31 - (35.7)
2600m - 3:55.35 - (36.0)
3000m - 4:31.64 - (36.2)
3400m - 5:08.26 - (36.6)
3800m - 5:45.11 - (36.8)
4200m - 6:22.10 - (36.9)
4600m - 6:59.39 - (37.2)
5000m - 7:36.50 - (37.0)
21.39 1
15 20 Xin  Zhao CHN CHN 7:38.28200m - 21.40 - (21.3)
600m - 56.06 - (34.6)
1000m - 1:31.24 - (35.1)
1400m - 2:06.78 - (35.5)
1800m - 2:41.60 - (34.8)
2200m - 3:17.15 - (35.5)
2600m - 3:52.73 - (35.5)
3000m - 4:29.06 - (36.3)
3400m - 5:05.73 - (36.6)
3800m - 5:42.86 - (37.1)
4200m - 6:21.04 - (38.1)
4600m - 6:59.84 - (38.7)
5000m - 7:38.28 - (38.4)
23.17 0
16 33 Francesca  Lollobrigida ITA ITA 7:39.78200m - 21.37 - (21.3)
600m - 55.72 - (34.3)
1000m - 1:31.02 - (35.2)
1400m - 2:07.57 - (36.5)
1800m - 2:44.18 - (36.6)
2200m - 3:20.95 - (36.7)
2600m - 3:57.68 - (36.7)
3000m - 4:34.92 - (37.2)
3400m - 5:12.07 - (37.1)
3800m - 5:49.14 - (37.0)
4200m - 6:26.38 - (37.2)
4600m - 7:03.38 - (37.0)
5000m - 7:39.78 - (36.3)
24.67 0
17 8 Lauren  McGuire CAN CAN 7:44.49200m - 22.19 - (22.1)
600m - 57.14 - (34.9)
1000m - 1:33.30 - (36.1)
1400m - 2:09.36 - (36.0)
1800m - 2:45.80 - (36.4)
2200m - 3:22.53 - (36.7)
2600m - 3:59.81 - (37.2)
3000m - 4:37.32 - (37.5)
3400m - 5:15.27 - (37.9)
3800m - 5:53.07 - (37.8)
4200m - 6:30.46 - (37.3)
4600m - 7:07.11 - (36.6)
5000m - 7:44.49 - (37.3)
29.38 0
18 80 Angelika  Fudalej POL POL 7:47.45200m - 22.64 - (22.6)
600m - 57.94 - (35.2)
1000m - 1:34.05 - (36.1)
1400m - 2:09.98 - (35.9)
1800m - 2:46.46 - (36.4)
2200m - 3:23.40 - (36.9)
2600m - 4:00.26 - (36.8)
3000m - 4:37.87 - (37.6)
3400m - 5:15.65 - (37.7)
3800m - 5:53.37 - (37.7)
4200m - 6:31.34 - (37.9)
4600m - 7:09.39 - (38.0)
5000m - 7:47.45 - (38.0)
32.34 0
19 14 Jing  Liu CHN CHN 7:47.65200m - 21.32 - (21.3)
600m - 55.77 - (34.4)
1000m - 1:31.36 - (35.5)
1400m - 2:07.82 - (36.4)
1800m - 2:44.50 - (36.6)
2200m - 3:21.31 - (36.8)
2600m - 3:58.04 - (36.7)
3000m - 4:35.23 - (37.1)
3400m - 5:12.74 - (37.5)
3800m - 5:50.82 - (38.0)
4200m - 6:29.31 - (38.4)
4600m - 7:07.68 - (38.3)
5000m - 7:47.65 - (39.9)
32.54 0
20 24 Nikola  Zdráhalova CZE CZE 7:49.37200m - 20.83 - (20.8)
600m - 55.78 - (34.9)
1000m - 1:31.76 - (35.9)
1400m - 2:08.42 - (36.6)
1800m - 2:45.40 - (36.9)
2200m - 3:22.85 - (37.4)
2600m - 4:00.58 - (37.7)
3000m - 4:38.48 - (37.9)
3400m - 5:16.18 - (37.6)
3800m - 5:54.19 - (38.0)
4200m - 6:32.50 - (38.3)
4600m - 7:10.83 - (38.3)
5000m - 7:49.37 - (38.5)
34.26 0